Location: Walnut Point State Park
(39.6958°N, 88.0345°W)
Time: 18:32:25
(UTC-06:00)

Amateur Radio Satellites - All Passes

Search period start: 27 February 2015 18:02
Search period end: 28 February 2015 18:02
Location: Walnut Point State Park, 39.6958°N, 88.0345°W

Satellite Date Start Highest point End Downlink Frequencies (MHz)
Time Altitude Azimuth
PHONESAT 2.4 27 Feb 18:29:32 18:32:12 20° 149° (SSE) 18:34:57 2401.200-2431.200
YUBILEINY 27 Feb 18:33:20 18:38:55 17° 300° (WNW) 18:44:02 435.215
O/OREOS (USA 219) 27 Feb 18:34:54 18:38:16 20° 56° (NE) 18:41:44 437.305
DOVE 4 27 Feb 18:36:04 18:37:07 11° 63° (ENE) 18:38:27 437.250
HO-68 27 Feb 18:40:51 18:46:48 31° 63° (ENE) 18:52:54 435.675
Cubesat XI-IV 27 Feb 18:43:02 18:46:40 18° 270° (W) 18:50:06 437.490
VERMONT LUNAR 27 Feb 18:49:29 18:52:49 44° 159° (SSE) 18:56:11 437.305
AIST 2 27 Feb 18:50:30 18:54:45 72° 302° (WNW) 18:59:03 435.215
CUBESAT XI-V 27 Feb 18:50:59 18:55:39 59° 286° (WNW) 19:00:16 437.345
BEESAT 3 27 Feb 18:51:47 18:55:14 25° 312° (NW) 18:58:41 437.485
CUTE-I 27 Feb 18:53:55 18:56:52 14° 271° (W) 18:59:31 437.470
BRITE-PL 27 Feb 18:55:39 19:00:49 37° 71° (ENE) 19:05:53 437.365/2234.400
AIST 1 27 Feb 19:00:15 19:04:27 42° 267° (W) 19:08:34
COMPASS 1 27 Feb 19:05:36 19:07:58 15° 67° (ENE) 19:10:31 437.405
AAUSAT CUBESAT 2 27 Feb 19:06:13 19:08:11 14° 66° (ENE) 19:10:21 437.432
CINEMA 3 27 Feb 19:09:10 19:10:39 12° 65° (ENE) 19:12:24 145.822/145.860
STRAND 1 27 Feb 19:11:02 19:16:11 69° 286° (WNW) 19:21:17 437.568
BEESAT 2 27 Feb 19:14:02 19:17:03 19° 315° (NW) 19:20:01 435.950
GOMX 1 27 Feb 19:18:12 19:23:15 41° 72° (ENE) 19:28:10 467.674
CANX-2 27 Feb 19:23:51 19:27:45 39° 73° (ENE) 19:31:42 2200.000
SEEDS 27 Feb 19:26:23 19:30:03 31° 72° (ENE) 19:33:48 437.485
PRISM 27 Feb 19:27:16 19:30:31 21° 292° (WNW) 19:33:40 437.425
CUTE 1.7 + AOD 2 27 Feb 19:42:43 19:46:51 58° 75° (ENE) 19:51:00 437.475
PCSat 27 Feb 19:42:57 19:45:35 14° 105° (ESE) 19:48:31 145.827
CUBEBUG 2 27 Feb 19:51:16 19:54:07 17° 68° (ENE) 19:57:05 437.445
PHONESAT 2.4 27 Feb 20:06:43 20:10:21 69° 164° (SSE) 20:13:58 2401.200-2431.200
Oscar 11 27 Feb 20:07:08 20:10:56 32° 71° (ENE) 20:14:47 145.826/435.025
DOVE 4 27 Feb 20:09:02 20:14:18 87° 73° (ENE) 20:19:21 437.250
O/OREOS (USA 219) 27 Feb 20:13:35 20:17:55 41° 254° (WSW) 20:22:11 437.305
DX 1 27 Feb 20:25:38 20:29:16 27° 69° (ENE) 20:33:01 434.975-435.025
VELOX 1 27 Feb 20:27:06 20:28:20 11° 63° (ENE) 20:29:49 145.980
VERMONT LUNAR 27 Feb 20:27:11 20:30:42 79° 354° (N) 20:34:11 437.305
HO-68 27 Feb 20:27:19 20:34:15 52° 260° (W) 20:41:12 435.675
DELFI C3 27 Feb 20:32:04 20:35:55 46° 74° (ENE) 20:39:49 145.870
AIST 2 27 Feb 20:33:23 20:34:12 10° 323° (NW) 20:34:52 435.215
BRITE-PL 27 Feb 20:34:22 20:39:21 30° 266° (W) 20:44:08 437.365/2234.400
COMPASS 1 27 Feb 20:39:25 20:43:23 42° 262° (W) 20:47:21 437.405
AAUSAT CUBESAT 2 27 Feb 20:39:27 20:43:29 49° 261° (W) 20:47:31 437.432
CINEMA 3 27 Feb 20:42:30 20:47:24 78° 259° (W) 20:52:06 145.822/145.860
ZACube-1 27 Feb 20:44:24 20:48:32 41° 73° (ENE) 20:52:38 437.345
FUNcube-1 27 Feb 20:44:26 20:48:33 40° 73° (ENE) 20:52:38 145.935
GONETS M04 27 Feb 20:45:48 20:52:33 27° 84° (E) 20:59:35
UWE-3 27 Feb 20:55:35 21:00:04 69° 76° (ENE) 21:04:26 435.000/436.395/437.385
GOMX 1 27 Feb 20:56:58 21:01:28 25° 267° (W) 21:05:45 467.674
UKube-1 27 Feb 20:58:49 21:03:04 58° 74° (ENE) 21:07:23 .
CANX-2 27 Feb 21:01:09 21:03:55 16° 269° (W) 21:06:32 2200.000
SEEDS 27 Feb 21:02:50 21:05:59 20° 267° (W) 21:09:01 437.485
HUMSAT D 27 Feb 21:14:14 21:18:16 45° 74° (ENE) 21:22:17 437.325/437.525
CUTE 1.7 + AOD 2 27 Feb 21:22:04 21:23:15 11° 272° (W) 21:24:11 437.475
PCSat 27 Feb 21:23:03 21:28:27 73° 301° (WNW) 21:33:54 145.827
ANTELSAT 27 Feb 21:23:55 21:25:41 13° 90° (E) 21:27:41 437.575/2403.000
CUBEBUG 2 27 Feb 21:26:08 21:30:33 45° 261° (W) 21:34:51 437.445
Oscar 11 27 Feb 21:43:53 21:47:11 21° 267° (W) 21:50:25 145.826/435.025
PHONESAT 2.4 27 Feb 21:45:12 21:48:51 76° 1° (N) 21:52:29 2401.200-2431.200
50 SAT 27 Feb 21:45:55 21:49:55 76° 77° (ENE) 21:53:55 437.505
QB50P1 27 Feb 21:46:03 21:47:30 12° 89° (E) 21:49:12 145.935-145.965
QB50P2 27 Feb 21:48:19 21:50:11 13° 90° (E) 21:52:15 145.880/145.840
AISAT 27 Feb 21:48:42 21:53:12 87° 76° (ENE) 21:57:44 437.250
DOVE 4 27 Feb 21:51:50 21:52:43 10° 273° (W) 21:53:11 437.250
VELOX 1 27 Feb 21:59:54 22:04:23 73° 259° (WSW) 22:08:54 145.980
DX 1 27 Feb 22:01:45 22:05:29 26° 265° (W) 22:09:11 434.975-435.025
ESTCUBE 1 27 Feb 22:02:58 22:07:23 55° 73° (ENE) 22:11:50 437.505/2401.250
CUBEBUG 1 27 Feb 22:04:02 22:08:19 51° 73° (ENE) 22:12:40 437.445
VERMONT LUNAR 27 Feb 22:05:13 22:08:42 86° 192° (SSW) 22:12:11 437.305
DUCHIFAT 1 27 Feb 22:05:26 22:08:30 20° 93° (E) 22:11:39 145.980
DELFI C3 27 Feb 22:09:35 22:11:28 13° 270° (W) 22:13:09 145.870
BUGSAT 1 27 Feb 22:12:50 22:15:36 18° 92° (E) 22:18:30 437.445
UNISAT 6 27 Feb 22:20:10 22:24:23 56° 100° (E) 22:28:38 437.425
POLYITAN 1 27 Feb 22:21:12 22:24:57 31° 96° (E) 22:28:43 437.675
FUNcube-1 27 Feb 22:22:08 22:25:06 17° 268° (W) 22:27:53 145.935
ZACube-1 27 Feb 22:22:11 22:25:08 17° 268° (W) 22:27:52 437.345
POPSAT HIP 1 27 Feb 22:23:25 22:27:13 32° 96° (E) 22:31:01 437.405
RS-15 27 Feb 22:29:18 22:38:48 38° 108° (ESE) 22:48:37 29.354- 29.394
CUSAT 1 27 Feb 22:32:48 22:35:05 12° 91° (E) 22:37:36 437.405
UWE-3 27 Feb 22:36:25 22:37:07 10° 272° (W) 22:37:31 435.000/436.395/437.385
UKube-1 27 Feb 22:38:00 22:39:42 12° 271° (W) 22:41:08 .
GONETS M04 27 Feb 22:40:17 22:48:52 61° 282° (WNW) 22:57:27
TIGRISAT 27 Feb 22:46:54 22:51:09 74° 284° (WNW) 22:55:26 435.000
NANOSAT C BR1 27 Feb 22:47:38 22:51:50 63° 101° (E) 22:56:00 145.865
SPROUT 27 Feb 22:49:30 22:53:32 39° 72° (ENE) 22:57:36 437.525
HUMSAT D 27 Feb 22:52:00 22:54:20 14° 269° (W) 22:56:28 437.325/437.525
ANTELSAT 27 Feb 22:58:43 23:02:53 52° 286° (WNW) 23:07:05 437.575/2403.000
TISAT 1 27 Feb 23:04:59 23:09:09 54° 74° (ENE) 23:13:22 437.305
PCSat 27 Feb 23:10:21 23:12:56 13° 321° (NW) 23:15:19 145.827
QB50P1 27 Feb 23:19:40 23:23:49 54° 286° (WNW) 23:27:55 145.935-145.965
QB50P2 27 Feb 23:22:22 23:26:28 49° 287° (WNW) 23:30:33 145.880/145.840
DANDE 27 Feb 23:22:42 23:28:59 32° 95° (E) 23:34:10 436.750
PHONESAT 2.4 27 Feb 23:23:45 23:27:20 62° 198° (SSW) 23:30:54 2401.200-2431.200
ITUPSAT 1 27 Feb 23:24:26 23:27:01 15° 64° (ENE) 23:29:49 437.325
DUCHIFAT 1 27 Feb 23:40:39 23:44:27 32° 289° (WNW) 23:48:10 145.980
ESTCUBE 1 27 Feb 23:42:24 23:44:42 13° 271° (W) 23:46:45 437.505/2401.250
CUBEBUG 1 27 Feb 23:42:40 23:45:05 14° 270° (W) 23:47:17 437.445
VERMONT LUNAR 27 Feb 23:43:24 23:46:25 27° 207° (SSW) 23:49:24 437.305
BUGSAT 1 27 Feb 23:47:26 23:51:16 35° 289° (WNW) 23:55:00 437.445
POLYITAN 1 27 Feb 23:57:29 00:00:45 21° 291° (WNW) 00:03:53 437.675
UNISAT 6 27 Feb 23:58:45 00:00:47 13° 295° (WNW) 00:02:38 437.425
POPSAT HIP 1 27 Feb 23:59:45 00:02:57 20° 292° (WNW) 00:06:01 437.405
CUSAT 1 28 Feb 00:10:57 00:17:55 87° 277° (W) 00:23:11 437.405
SWISSCUBE 28 Feb 00:25:09 00:29:52 67° 74° (ENE) 00:34:39 437.505
NANOSAT C BR1 28 Feb 00:25:44 00:27:14 11° 296° (WNW) 00:28:32 145.865
SPROUT 28 Feb 00:26:52 00:29:50 17° 268° (W) 00:32:40 437.525
BEESAT 28 Feb 00:34:22 00:39:07 77° 75° (ENE) 00:43:54 436.000
RS-15 28 Feb 00:39:59 00:50:45 60° 310° (NW) 01:01:39 29.354- 29.394
TISAT 1 28 Feb 00:43:29 00:45:23 12° 271° (W) 00:47:03 437.305
Oscar 19 28 Feb 00:45:18 00:49:49 31° 96° (E) 00:54:23 437.125/150
GONETS M04 28 Feb 00:45:54 00:48:05 11° 306° (NW) 00:49:33
ITUPSAT 1 28 Feb 00:59:46 01:04:29 60° 260° (W) 01:09:15 437.325
PHONESAT 2.4 28 Feb 01:02:59 01:05:25 17° 212° (SSW) 01:07:46 2401.200-2431.200
DANDE 28 Feb 01:05:32 01:12:20 40° 283° (WNW) 01:17:36 436.750
Gurwin Techsat 1B 28 Feb 01:30:11 01:34:06 21° 92° (E) 01:38:10 435.225
BEESAT 3 28 Feb 01:33:48 01:36:39 18° 45° (NE) 01:39:34 437.485
KKS-1 28 Feb 01:37:00 01:41:27 67° 75° (ENE) 01:45:55 437.445
STARS 28 Feb 01:50:42 01:55:04 61° 74° (ENE) 01:59:28 437.465
BEESAT 2 28 Feb 01:55:25 01:58:50 24° 48° (NE) 02:02:16 435.950
SO-50 28 Feb 01:57:12 02:01:43 64° 119° (ESE) 02:06:25 436.795
CUSAT 1 28 Feb 01:59:03 02:01:07 11° 292° (WNW) 02:02:40 437.405
SWISSCUBE 28 Feb 02:06:21 02:08:19 12° 272° (W) 02:10:00 437.505
ITAMSAT 1 28 Feb 02:15:25 02:20:40 77° 103° (ESE) 02:25:53 435.822/435.867
BEESAT 28 Feb 02:16:58 02:17:39 10° 273° (W) 02:18:00 436.000
Oscar 19 28 Feb 02:24:42 02:29:08 30° 292° (WNW) 02:33:30 437.125/150
MOZHAYETS 4 28 Feb 02:29:29 02:30:44 11° 64° (ENE) 02:32:15
YUBILEINY 28 Feb 02:43:08 02:51:32 47° 74° (ENE) 02:59:59 435.215
RS-15 28 Feb 02:57:59 03:06:13 23° 339° (NNW) 03:14:24 29.354- 29.394
Gurwin Techsat 1B 28 Feb 03:09:16 03:14:21 46° 289° (WNW) 03:19:23 435.225
BEESAT 3 28 Feb 03:11:03 03:15:02 47° 243° (WSW) 03:18:57 437.485
AIST 2 28 Feb 03:13:14 03:17:27 56° 55° (NE) 03:21:35 435.215
KKS-1 28 Feb 03:17:27 03:18:39 11° 272° (W) 03:19:33 437.445
M-CUBED/EXP-1 PRIME 28 Feb 03:17:50 03:21:07 78° 252° (WSW) 03:24:29 437.505
JAS-2 28 Feb 03:18:55 03:25:02 28° 92° (E) 03:31:39 435.910
AUBIESAT-1 28 Feb 03:22:25 03:25:42 78° 253° (WSW) 03:29:05 437.475
STARS 28 Feb 03:30:18 03:32:02 12° 271° (W) 03:33:29 437.465
HORYU 2 28 Feb 03:31:15 03:35:43 88° 275° (W) 03:40:10 437.375
BEESAT 2 28 Feb 03:33:20 03:37:04 32° 245° (WSW) 03:40:42 435.950
AO-7 28 Feb 03:34:43 03:42:36 47° 100° (E) 03:50:30 29.400- 29.500
SO-50 28 Feb 03:39:29 03:42:46 18° 318° (NW) 03:46:02 436.795
ITAMSAT 1 28 Feb 03:56:54 03:59:35 14° 298° (WNW) 04:02:02 435.822/435.867
MOZHAYETS 4 28 Feb 04:02:52 04:07:25 74° 259° (W) 04:12:00
JUGNU 28 Feb 04:11:56 04:12:14 10° 177° (S) 04:12:34 437.505
CUBESAT XI-V 28 Feb 04:19:02 04:21:02 13° 64° (ENE) 04:23:15 437.345
PCSat 28 Feb 04:30:19 04:32:45 13° 39° (NE) 04:35:24 145.827
YUBILEINY 28 Feb 04:40:17 04:48:14 38° 273° (W) 04:56:00 435.215
PRISM 28 Feb 04:41:40 04:44:47 22° 68° (ENE) 04:48:02 437.425
STRAND 1 28 Feb 04:48:53 04:52:22 19° 65° (ENE) 04:56:01 437.568
AIST 2 28 Feb 04:53:32 04:55:37 13° 250° (WSW) 04:57:30 435.215
JAS-2 28 Feb 05:03:13 05:10:23 59° 288° (WNW) 05:18:00 435.910
RS-15 28 Feb 05:16:30 05:24:11 20° 15° (NNE) 05:32:17 29.354- 29.394
Cubesat XI-IV 28 Feb 05:19:42 05:23:56 24° 93° (E) 05:28:17 437.490
AO-7 28 Feb 05:27:45 05:35:19 40° 298° (WNW) 05:42:43 29.400- 29.500
CUTE-I 28 Feb 05:29:20 05:33:56 29° 95° (E) 05:38:35 437.470
CUBESAT XI-V 28 Feb 05:53:19 05:57:58 68° 259° (W) 06:02:41 437.345
SRMSAT 28 Feb 05:55:52 05:56:32 10° 178° (S) 05:57:13 437.500
PCSat 28 Feb 06:11:47 06:17:13 74° 60° (ENE) 06:22:38 145.827
PRISM 28 Feb 06:16:32 06:20:10 29° 264° (W) 06:23:48 437.425
STRAND 1 28 Feb 06:26:12 06:31:13 52° 260° (W) 06:36:15 437.568
JAS-2 28 Feb 06:51:55 06:54:20 11° 304° (WNW) 06:56:17 435.910
GONETS M04 28 Feb 06:58:10 07:00:54 12° 55° (NE) 07:04:20
Cubesat XI-IV 28 Feb 06:59:11 07:04:14 42° 290° (WNW) 07:09:13 437.490
CUTE-I 28 Feb 07:09:13 07:14:03 35° 291° (WNW) 07:18:49 437.470
AIST 1 28 Feb 07:28:28 07:32:46 68° 279° (W) 07:37:09
RS-15 28 Feb 07:29:34 07:40:26 49° 46° (NE) 07:51:51 29.354- 29.394
CUTE 1.7 + AOD 2 28 Feb 07:31:32 07:32:23 11° 88° (E) 07:33:31 437.475
HO-68 28 Feb 07:55:59 08:02:15 33° 95° (E) 08:08:38 435.675
PCSat 28 Feb 07:57:14 08:00:05 14° 255° (WSW) 08:02:37 145.827
DOVE 4 28 Feb 08:10:32 08:13:50 22° 93° (E) 08:17:08 437.250
ANTELSAT 28 Feb 08:23:25 08:24:51 12° 65° (ENE) 08:26:29 437.575/2403.000
AAUSAT CUBESAT 2 28 Feb 08:23:49 08:27:20 26° 95° (E) 08:30:55 437.432
COMPASS 1 28 Feb 08:24:00 08:27:42 30° 96° (E) 08:31:27 437.405
CINEMA 3 28 Feb 08:39:19 08:42:41 24° 94° (E) 08:46:05 145.822/145.860
BRITE-PL 28 Feb 08:40:15 08:44:55 73° 285° (WNW) 08:49:13 437.365/2234.400
QB50P2 28 Feb 08:42:54 08:43:04 10° 64° (ENE) 08:43:31 145.880/145.840
CANX-2 28 Feb 08:45:30 08:49:46 90° 89° (E) 08:54:02 2200.000
O/OREOS (USA 219) 28 Feb 08:46:18 08:49:56 25° 103° (ESE) 08:53:42 437.305
SEEDS 28 Feb 08:46:48 08:51:01 70° 101° (E) 08:55:15 437.485
UWE-3 28 Feb 08:48:16 08:50:11 13° 90° (E) 08:52:19 435.000/436.395/437.385
UKube-1 28 Feb 08:50:35 08:50:56 10° 88° (E) 08:51:37 .
GONETS M04 28 Feb 08:51:16 08:59:57 66° 79° (E) 09:08:41
DUCHIFAT 1 28 Feb 08:58:13 09:00:34 15° 66° (ENE) 09:03:06 145.980
GOMX 1 28 Feb 08:59:25 09:03:53 67° 285° (WNW) 09:08:03 467.674
BUGSAT 1 28 Feb 09:03:26 09:05:17 13° 65° (ENE) 09:07:20 437.445
CUTE 1.7 + AOD 2 28 Feb 09:04:36 09:08:48 60° 285° (WNW) 09:12:59 437.475
ISS 28 Feb 09:10:15 09:13:16 38° 137° (SE) 09:16:17 145.825
POLYITAN 1 28 Feb 09:14:02 09:17:23 23° 69° (ENE) 09:20:48 437.675
POPSAT HIP 1 28 Feb 09:15:57 09:19:19 23° 69° (ENE) 09:22:48 437.405
CUBEBUG 2 28 Feb 09:18:20 09:22:11 36° 97° (E) 09:26:02 437.445
UNISAT 6 28 Feb 09:18:28 09:22:42 45° 73° (ENE) 09:26:53 437.425
Oscar 11 28 Feb 09:30:45 09:35:05 74° 101° (E) 09:39:24 145.826/435.025
NANOSAT C BR1 28 Feb 09:39:30 09:43:32 42° 73° (ENE) 09:47:36 145.865
AISAT 28 Feb 09:41:43 09:44:39 18° 92° (E) 09:47:43 437.250
RS-15 28 Feb 09:42:05 09:53:09 54° 247° (WSW) 10:04:32 29.354- 29.394
HO-68 28 Feb 09:43:21 09:50:11 47° 293° (WNW) 09:56:56 435.675
TIGRISAT 28 Feb 09:44:41 09:49:09 88° 84° (E) 09:53:33 435.000
DELFI C3 28 Feb 09:47:43 09:51:50 87° 284° (WNW) 09:55:55 145.870
DOVE 4 28 Feb 09:47:57 09:51:42 28° 290° (WNW) 09:55:16 437.250
DX 1 28 Feb 09:50:13 09:54:31 54° 100° (E) 09:58:48 434.975-435.025
VELOX 1 28 Feb 09:52:12 09:55:39 22° 94° (E) 09:59:11 145.980
ANTELSAT 28 Feb 09:56:47 10:01:13 66° 259° (W) 10:05:33 437.575/2403.000
ESTCUBE 1 28 Feb 09:58:34 10:00:26 13° 89° (E) 10:02:33 437.505/2401.250
AAUSAT CUBESAT 2 28 Feb 09:59:30 10:02:56 24° 290° (WNW) 10:06:17 437.432
COMPASS 1 28 Feb 10:00:03 10:03:17 21° 291° (WNW) 10:06:25 437.405
FUNcube-1 28 Feb 10:09:44 10:13:54 83° 285° (WNW) 10:18:03 145.935
ZACube-1 28 Feb 10:09:58 10:14:09 81° 281° (W) 10:18:17 437.345
QB50P1 28 Feb 10:11:18 10:15:37 82° 260° (W) 10:19:55 145.935-145.965
QB50P2 28 Feb 10:14:11 10:18:28 75° 258° (WSW) 10:22:46 145.880/145.840
CINEMA 3 28 Feb 10:16:25 10:19:55 25° 290° (WNW) 10:23:19 145.822/145.860
UWE-3 28 Feb 10:23:06 10:27:05 45° 287° (WNW) 10:31:02 435.000/436.395/437.385
UKube-1 28 Feb 10:23:19 10:27:39 66° 285° (WNW) 10:31:57 .
O/OREOS (USA 219) 28 Feb 10:25:11 10:29:15 31° 299° (WNW) 10:33:19 437.305
SEEDS 28 Feb 10:25:39 10:26:21 10° 296° (WNW) 10:26:48 437.485
SO-50 28 Feb 10:29:26 10:34:13 47° 53° (NE) 10:38:59 436.795
DUCHIFAT 1 28 Feb 10:31:55 10:36:04 48° 261° (W) 10:40:14 145.980
HUMSAT D 28 Feb 10:34:51 10:38:58 81° 285° (WNW) 10:43:05 437.325/437.525
BUGSAT 1 28 Feb 10:36:08 10:40:20 57° 259° (W) 10:44:34 437.445
ISS 28 Feb 10:46:59 10:49:45 26° 333° (NNW) 10:52:33 145.825
GONETS M04 28 Feb 10:49:19 10:56:11 25° 277° (W) 11:02:44
POLYITAN 1 28 Feb 10:49:23 10:53:11 30° 264° (W) 10:56:58 437.675
POPSAT HIP 1 28 Feb 10:51:21 10:55:08 29° 264° (W) 10:58:52 437.405
CUSAT 1 28 Feb 10:52:35 10:55:07 41° 78° (ENE) 10:57:36 437.405
CUBEBUG 2 28 Feb 10:55:50 10:58:40 17° 292° (WNW) 11:01:22 437.445
UNISAT 6 28 Feb 10:57:03 10:59:46 15° 269° (W) 11:02:17 437.425
50 SAT 28 Feb 11:00:20 11:04:13 55° 285° (WNW) 11:08:04 437.505
Oscar 11 28 Feb 11:09:58 11:10:45 10° 296° (WNW) 11:11:17 145.826/435.025
NANOSAT C BR1 28 Feb 11:16:56 11:19:39 16° 269° (W) 11:22:11 145.865
AISAT 28 Feb 11:17:18 11:21:30 40° 288° (WNW) 11:25:37 437.250
DX 1 28 Feb 11:28:01 11:30:22 14° 295° (WNW) 11:32:32 434.975-435.025
VELOX 1 28 Feb 11:28:20 11:32:19 32° 290° (WNW) 11:36:13 145.980
CUBEBUG 1 28 Feb 11:30:03 11:34:28 69° 285° (WNW) 11:38:49 437.445
ESTCUBE 1 28 Feb 11:33:17 11:37:47 59° 286° (WNW) 11:42:15 437.505/2401.250
DANDE 28 Feb 11:50:16 11:52:35 24° 266° (W) 11:54:46 436.750
ITAMSAT 1 28 Feb 11:56:27 11:58:51 14° 62° (ENE) 12:01:31 435.822/435.867
Oscar 19 28 Feb 12:01:17 12:06:06 42° 71° (ENE) 12:10:57 437.125/150
SO-50 28 Feb 12:10:44 12:14:31 21° 248° (WSW) 12:18:07 436.795
SPROUT 28 Feb 12:12:45 12:17:05 88° 101° (E) 12:21:22 437.525
ISS 28 Feb 12:26:10 12:27:04 11° 353° (N) 12:27:57 145.825
TISAT 1 28 Feb 12:26:16 12:30:31 71° 284° (WNW) 12:34:41 437.305
SWISSCUBE 28 Feb 12:27:27 12:30:43 19° 92° (E) 12:34:09 437.505
BEESAT 28 Feb 12:36:21 12:39:56 21° 93° (E) 12:43:37 436.000
AO-7 28 Feb 12:46:13 12:49:19 13° 48° (NE) 12:52:56 29.400- 29.500
Gurwin Techsat 1B 28 Feb 12:50:18 12:54:55 32° 68° (ENE) 12:59:37 435.225
ITUPSAT 1 28 Feb 13:01:24 13:05:52 37° 97° (E) 13:10:20 437.325
KKS-1 28 Feb 13:30:48 13:32:56 14° 90° (E) 13:35:18 437.445
ITAMSAT 1 28 Feb 13:32:33 13:37:46 78° 256° (WSW) 13:43:03 435.822/435.867
Oscar 19 28 Feb 13:41:40 13:45:40 22° 267° (W) 13:49:32 437.125/150
STARS 28 Feb 13:43:44 13:45:11 12° 89° (E) 13:46:54 437.465
ISS 28 Feb 14:03:03 14:04:37 13° 13° (NNE) 14:06:13 145.825
SWISSCUBE 28 Feb 14:04:16 14:08:52 44° 288° (WNW) 14:13:24 437.505
BEESAT 28 Feb 14:13:29 14:17:58 39° 289° (WNW) 14:22:23 436.000
HORYU 2 28 Feb 14:28:42 14:33:07 77° 76° (ENE) 14:37:34 437.375
Gurwin Techsat 1B 28 Feb 14:30:09 14:34:53 31° 265° (W) 14:39:34 435.225
AO-7 28 Feb 14:32:30 14:40:36 59° 67° (ENE) 14:48:45 29.400- 29.500
ITUPSAT 1 28 Feb 14:39:45 14:43:34 23° 293° (WNW) 14:47:17 437.325
KKS-1 28 Feb 15:05:39 15:09:59 51° 287° (WNW) 15:14:16 437.445
JAS-2 28 Feb 15:15:10 15:20:25 57° 72° (ENE) 15:26:17 435.910
STARS 28 Feb 15:17:49 15:22:08 59° 286° (WNW) 15:26:25 437.465
ISS 28 Feb 15:38:35 15:41:42 43° 32° (NNE) 15:44:50 145.825
YUBILEINY 28 Feb 15:42:44 15:51:04 55° 91° (E) 15:59:35 435.215
MOZHAYETS 4 28 Feb 15:59:16 16:03:13 28° 95° (E) 16:07:13
AO-7 28 Feb 16:26:41 16:33:53 30° 265° (W) 16:40:51 29.400- 29.500
M-CUBED/EXP-1 PRIME 28 Feb 16:33:48 16:38:00 88° 288° (WNW) 16:42:32 437.505
AUBIESAT-1 28 Feb 16:37:52 16:42:05 88° 289° (WNW) 16:46:37 437.475
Cubesat XI-IV 28 Feb 16:40:46 16:45:37 37° 69° (ENE) 16:50:34 437.490
CUTE-I 28 Feb 16:50:15 16:55:18 44° 71° (ENE) 17:00:25 437.470
JAS-2 28 Feb 17:02:39 17:06:16 17° 273° (W) 17:09:49 435.910
BEESAT 3 28 Feb 17:03:57 17:07:43 37° 116° (ESE) 17:11:33 437.485
AIST 2 28 Feb 17:12:22 17:14:42 15° 110° (ESE) 17:17:13 435.215
ISS 28 Feb 17:15:33 17:17:58 19° 227° (SW) 17:20:18 145.825
BEESAT 2 28 Feb 17:26:28 17:30:29 57° 118° (ESE) 17:34:35 435.950
MOZHAYETS 4 28 Feb 17:36:27 17:40:25 28° 290° (WNW) 17:44:19
AIST 1 28 Feb 17:36:59 17:40:41 26° 74° (ENE) 17:44:27
YUBILEINY 28 Feb 17:40:42 17:48:23 32° 291° (WNW) 17:55:56 435.215
CUBESAT XI-V 28 Feb 17:51:16 17:55:29 32° 95° (E) 17:59:43 437.345
PHONESAT 2.4 28 Feb 17:52:25 17:54:49 17° 148° (SSE) 17:57:16 2401.200-2431.200
